Year,Month,Day,Hour,Minute,Value (Times are PST for temperature in C)
2008,06,21,00,00,14.70
2008,06,21,00,01,14.70
2008,06,21,00,02,14.70
2008,06,21,00,03,14.70
2008,06,21,00,04,14.70
2008,06,21,00,05,14.70
2008,06,21,00,06,14.70
2008,06,21,00,07,14.70
2008,06,21,00,08,14.70
2008,06,21,00,09,14.70
2008,06,21,00,10,14.70
2008,06,21,00,11,14.70
2008,06,21,00,12,14.70
2008,06,21,01,02,14.40
2008,06,21,01,03,14.40
2008,06,21,01,04,14.40
2008,06,21,01,05,14.40
2008,06,21,01,06,14.40
2008,06,21,01,07,14.40
2008,06,21,01,08,14.40
2008,06,21,01,09,14.40
2008,06,21,01,10,14.40
2008,06,21,01,11,14.40
2008,06,21,01,12,14.40
2008,06,21,01,13,14.40
2008,06,21,01,14,14.40
2008,06,21,01,15,14.40
2008,06,21,01,16,14.40
2008,06,21,01,17,14.30
2008,06,21,01,18,14.30
2008,06,21,01,19,14.30
2008,06,21,01,20,14.30
2008,06,21,01,21,14.30
2008,06,21,01,22,14.30
2008,06,21,01,23,14.30
2008,06,21,01,24,14.30
2008,06,21,01,25,14.30
2008,06,21,01,26,14.30
2008,06,21,01,27,14.30
2008,06,21,01,28,14.30
2008,06,21,01,29,14.30
2008,06,21,01,30,14.30
2008,06,21,01,31,14.20
2008,06,21,01,32,14.20
2008,06,21,01,33,14.20
2008,06,21,01,34,14.20
2008,06,21,01,35,14.20
2008,06,21,01,36,14.20
2008,06,21,01,37,14.20
2008,06,21,01,38,14.20
2008,06,21,01,39,14.20
2008,06,21,01,40,14.10
2008,06,21,01,41,14.10
2008,06,21,01,42,14.10
2008,06,21,01,43,14.10
2008,06,21,01,44,14.10
2008,06,21,01,45,14.10
2008,06,21,01,46,14.10
2008,06,21,01,47,14.10
2008,06,21,01,48,14.10
2008,06,21,01,49,14.10
2008,06,21,01,50,14.10
2008,06,21,01,51,14.00
2008,06,21,01,52,14.00
2008,06,21,01,53,14.00
2008,06,21,01,54,14.00
2008,06,21,01,55,14.00
2008,06,21,01,56,14.00
2008,06,21,01,57,14.00
2008,06,21,01,58,14.00
2008,06,21,01,59,14.00
2008,06,21,02,00,13.90
2008,06,21,02,01,13.90
2008,06,21,02,02,13.90
2008,06,21,02,03,13.90
2008,06,21,02,04,13.90
2008,06,21,02,05,13.90
2008,06,21,02,06,13.90
2008,06,21,02,07,13.90
2008,06,21,02,08,13.90
2008,06,21,02,09,13.90
2008,06,21,02,10,13.90
2008,06,21,02,11,13.90
2008,06,21,02,12,13.80
2008,06,21,02,13,13.80
2008,06,21,02,14,13.80
2008,06,21,02,15,13.80
2008,06,21,02,16,13.80
2008,06,21,02,17,13.80
2008,06,21,02,18,13.80
2008,06,21,02,19,13.80
2008,06,21,02,20,13.80
2008,06,21,02,21,13.80
2008,06,21,02,22,13.80
2008,06,21,02,23,13.80
2008,06,21,02,24,13.70
2008,06,21,02,25,13.70
2008,06,21,02,26,13.70
2008,06,21,02,27,13.70
2008,06,21,02,28,13.70
2008,06,21,02,29,13.70
2008,06,21,02,30,13.70
2008,06,21,02,31,13.70
2008,06,21,02,32,13.70
2008,06,21,02,33,13.70
2008,06,21,02,34,13.70
2008,06,21,02,35,13.70
2008,06,21,02,36,13.70
2008,06,21,02,37,13.70
2008,06,21,02,38,13.70
2008,06,21,02,39,13.70
2008,06,21,02,40,13.70
2008,06,21,02,41,13.60
2008,06,21,02,42,13.60
2008,06,21,02,43,13.60
2008,06,21,02,44,13.60
2008,06,21,02,45,13.60
2008,06,21,02,46,13.60
2008,06,21,02,47,13.60
2008,06,21,02,48,13.60
2008,06,21,02,49,13.60
2008,06,21,02,50,13.60
2008,06,21,02,51,13.60
2008,06,21,02,52,13.60
2008,06,21,02,53,13.50
2008,06,21,02,54,13.50
2008,06,21,02,55,13.50
2008,06,21,02,56,13.50
2008,06,21,02,57,13.50
2008,06,21,02,58,13.50
2008,06,21,02,59,13.50
2008,06,21,03,00,13.40
2008,06,21,03,01,13.40
2008,06,21,03,02,13.40
2008,06,21,03,03,13.40
2008,06,21,03,04,13.40
2008,06,21,03,05,13.40
2008,06,21,03,06,13.40
2008,06,21,03,07,13.40
2008,06,21,03,08,13.40
2008,06,21,03,09,13.40
2008,06,21,03,10,13.40
2008,06,21,03,11,13.40
2008,06,21,03,12,13.40
2008,06,21,03,13,13.40
2008,06,21,03,14,13.40
2008,06,21,03,15,13.40
2008,06,21,03,16,13.40
2008,06,21,03,17,13.30
2008,06,21,03,18,13.30
2008,06,21,03,19,13.30
2008,06,21,03,20,13.30
2008,06,21,03,21,13.30
2008,06,21,03,22,13.30
2008,06,21,03,23,13.30
2008,06,21,03,24,13.30
2008,06,21,03,25,13.30
2008,06,21,03,26,13.30
2008,06,21,03,27,13.30
2008,06,21,03,28,13.30
2008,06,21,03,29,13.30
2008,06,21,03,30,13.30
2008,06,21,03,31,13.30
2008,06,21,03,32,13.30
2008,06,21,03,33,13.30
2008,06,21,03,34,13.30
2008,06,21,03,35,13.30
2008,06,21,03,36,13.30
2008,06,21,03,37,13.30
2008,06,21,03,38,13.30
2008,06,21,03,39,13.30
2008,06,21,03,40,13.30
2008,06,21,03,41,13.30
2008,06,21,03,42,13.30
2008,06,21,03,43,13.30
2008,06,21,03,44,13.30
2008,06,21,03,45,13.30
2008,06,21,03,46,13.30
2008,06,21,03,47,13.30
2008,06,21,03,48,13.30
2008,06,21,03,49,13.30
2008,06,21,03,50,13.30
2008,06,21,03,51,13.30
2008,06,21,03,52,13.30
2008,06,21,03,53,13.30
2008,06,21,03,54,13.30
2008,06,21,03,55,13.30
2008,06,21,03,56,13.30
2008,06,21,03,57,13.30
2008,06,21,03,58,13.30
2008,06,21,03,59,13.30
2008,06,21,04,00,13.30
2008,06,21,04,01,13.30
2008,06,21,04,02,13.30
2008,06,21,04,03,13.30
2008,06,21,04,04,13.30
2008,06,21,04,05,13.30
2008,06,21,04,06,13.30
2008,06,21,04,07,13.20
2008,06,21,04,08,13.20
2008,06,21,04,09,13.20
2008,06,21,04,10,13.20
2008,06,21,04,11,13.20
2008,06,21,04,12,13.20
2008,06,21,04,13,13.20
2008,06,21,04,14,13.20
2008,06,21,04,15,13.10
2008,06,21,04,16,13.10
2008,06,21,04,17,13.10
2008,06,21,04,18,13.10
2008,06,21,04,19,13.10
2008,06,21,04,20,13.00
2008,06,21,04,21,13.00
2008,06,21,04,22,13.00
2008,06,21,04,23,13.00
2008,06,21,04,24,12.90
2008,06,21,04,25,12.90
2008,06,21,04,26,12.90
2008,06,21,04,27,12.90
2008,06,21,04,28,12.90
2008,06,21,04,29,12.80
2008,06,21,04,30,12.80
2008,06,21,04,31,12.80
2008,06,21,04,32,12.80
2008,06,21,04,33,12.80
2008,06,21,04,34,12.80
2008,06,21,04,35,12.80
2008,06,21,04,36,12.70
2008,06,21,04,37,12.70
2008,06,21,04,38,12.70
2008,06,21,04,39,12.70
2008,06,21,04,40,12.70
2008,06,21,04,41,12.70
2008,06,21,04,42,12.60
2008,06,21,04,43,12.60
2008,06,21,04,44,12.60
2008,06,21,04,45,12.60
2008,06,21,04,46,12.60
2008,06,21,04,47,12.60
2008,06,21,04,48,12.50
2008,06,21,04,49,12.50
2008,06,21,04,50,12.50
2008,06,21,04,51,12.50
2008,06,21,04,52,12.50
2008,06,21,04,53,12.40
2008,06,21,04,54,12.40
2008,06,21,04,55,12.40
2008,06,21,04,56,12.40
2008,06,21,04,57,12.40
2008,06,21,04,58,12.40
2008,06,21,04,59,12.40
2008,06,21,05,00,12.40
2008,06,21,05,01,12.30
2008,06,21,05,02,12.30
2008,06,21,05,03,12.30
2008,06,21,05,04,12.30
2008,06,21,05,05,12.30
2008,06,21,05,06,12.30
2008,06,21,05,07,12.30
2008,06,21,05,08,12.30
2008,06,21,05,09,12.20
2008,06,21,05,10,12.20
2008,06,21,05,11,12.20
2008,06,21,05,12,12.20
2008,06,21,05,13,12.20
2008,06,21,05,14,12.20
2008,06,21,05,15,12.20
2008,06,21,05,16,12.20
2008,06,21,05,17,12.20
2008,06,21,05,18,12.20
2008,06,21,05,19,12.20
2008,06,21,05,20,12.20
2008,06,21,05,21,12.20
2008,06,21,05,22,12.20
2008,06,21,05,23,12.20
2008,06,21,05,24,12.20
2008,06,21,05,25,12.20
2008,06,21,05,26,12.20
2008,06,21,05,27,12.20
2008,06,21,05,28,12.20
2008,06,21,05,29,12.20
2008,06,21,05,30,12.20
2008,06,21,05,31,12.20
2008,06,21,05,32,12.20
2008,06,21,05,33,12.20
2008,06,21,05,34,12.20
2008,06,21,05,35,12.20
2008,06,21,05,36,12.20
2008,06,21,05,37,12.20
2008,06,21,05,38,12.20
2008,06,21,05,39,12.20
2008,06,21,05,40,12.20
2008,06,21,05,41,12.20
2008,06,21,05,42,12.20
2008,06,21,05,43,12.20
2008,06,21,05,44,12.20
2008,06,21,05,45,12.20
2008,06,21,05,46,12.20
2008,06,21,05,47,12.20
2008,06,21,05,48,12.20
2008,06,21,05,49,12.20
2008,06,21,05,50,12.20
2008,06,21,05,51,12.20
2008,06,21,05,52,12.20
2008,06,21,05,53,12.20
2008,06,21,05,54,12.20
2008,06,21,05,55,12.20
2008,06,21,05,56,12.20
2008,06,21,05,57,12.30
2008,06,21,05,58,12.30
2008,06,21,05,59,12.30
2008,06,21,06,00,12.30
2008,06,21,06,01,12.30
2008,06,21,06,02,12.30
2008,06,21,06,03,12.30
2008,06,21,06,04,12.30
2008,06,21,06,05,12.30
2008,06,21,06,06,12.30
2008,06,21,06,07,12.40
2008,06,21,06,08,12.40
2008,06,21,06,09,12.40
2008,06,21,06,10,12.40
2008,06,21,06,11,12.40
2008,06,21,06,12,12.40
2008,06,21,06,13,12.40
2008,06,21,06,14,12.40
2008,06,21,06,15,12.40
2008,06,21,06,16,12.40
2008,06,21,06,17,12.40
2008,06,21,06,18,12.40
2008,06,21,06,19,12.40
2008,06,21,06,20,12.40
2008,06,21,06,21,12.50
2008,06,21,06,22,12.50
2008,06,21,06,23,12.50
2008,06,21,06,24,12.50
2008,06,21,06,25,12.50
2008,06,21,06,26,12.50
2008,06,21,06,27,12.60
2008,06,21,06,28,12.60
2008,06,21,06,29,12.60
2008,06,21,06,30,12.60
2008,06,21,06,31,12.60
2008,06,21,06,32,12.60
2008,06,21,06,33,12.60
2008,06,21,06,34,12.60
2008,06,21,06,35,12.70
2008,06,21,06,36,12.70
2008,06,21,06,37,12.70
2008,06,21,06,38,12.70
2008,06,21,06,39,12.70
2008,06,21,06,40,12.70
2008,06,21,06,41,12.70
2008,06,21,06,42,12.70
2008,06,21,06,43,12.80
2008,06,21,06,44,12.80
2008,06,21,06,45,12.80
2008,06,21,06,46,12.80
2008,06,21,06,47,12.80
2008,06,21,06,48,12.80
2008,06,21,06,49,12.80
2008,06,21,06,50,12.80
2008,06,21,06,51,12.90
2008,06,21,06,52,12.90
2008,06,21,06,53,12.90
2008,06,21,06,54,12.90
2008,06,21,06,55,12.90
2008,06,21,06,56,12.90
2008,06,21,06,57,13.00
2008,06,21,06,58,13.00
2008,06,21,06,59,13.00
2008,06,21,07,00,13.00
2008,06,21,07,01,13.10
2008,06,21,07,02,13.10
2008,06,21,07,03,13.10
2008,06,21,07,04,13.10
2008,06,21,07,05,13.10
2008,06,21,07,06,13.10
2008,06,21,07,07,13.10
2008,06,21,07,08,13.20
2008,06,21,07,09,13.20
2008,06,21,07,10,13.20
2008,06,21,07,11,13.20
2008,06,21,07,12,13.20
2008,06,21,07,13,13.20
2008,06,21,07,14,13.30
2008,06,21,07,15,13.30
2008,06,21,07,16,13.30
2008,06,21,07,17,13.30
2008,06,21,07,18,13.30
2008,06,21,07,19,13.30
2008,06,21,07,20,13.40
2008,06,21,07,21,13.40
2008,06,21,07,22,13.40
2008,06,21,07,23,13.40
2008,06,21,07,24,13.40
2008,06,21,07,25,13.40
2008,06,21,07,26,13.50
2008,06,21,07,27,13.50
2008,06,21,07,28,13.50
2008,06,21,07,29,13.60
2008,06,21,07,30,13.60
2008,06,21,07,31,13.60
2008,06,21,07,32,13.60
2008,06,21,07,33,13.60
2008,06,21,07,34,13.60
2008,06,21,07,35,13.70
2008,06,21,07,36,13.70
2008,06,21,07,37,13.70
2008,06,21,07,38,13.70
2008,06,21,07,39,13.80
2008,06,21,07,40,13.80
2008,06,21,07,41,13.80
2008,06,21,07,42,13.80
2008,06,21,07,43,13.80
2008,06,21,07,44,13.90
2008,06,21,07,45,13.90
2008,06,21,07,46,14.00
2008,06,21,07,47,14.00
2008,06,21,07,48,14.00
2008,06,21,07,49,14.10
2008,06,21,07,50,14.10
2008,06,21,07,51,14.10
2008,06,21,07,52,14.10
2008,06,21,07,53,14.20
2008,06,21,07,54,14.20
2008,06,21,07,55,14.20
2008,06,21,07,56,14.20
2008,06,21,07,57,14.30
2008,06,21,07,58,14.30
2008,06,21,07,59,14.30
2008,06,21,08,00,14.30
2008,06,21,08,01,14.30
2008,06,21,08,02,14.40
2008,06,21,08,03,14.40
2008,06,21,08,04,14.40
2008,06,21,08,05,14.40
2008,06,21,08,06,14.50
2008,06,21,08,07,14.50
2008,06,21,08,08,14.50
2008,06,21,08,09,14.60
2008,06,21,08,10,14.60
2008,06,21,08,11,14.60
2008,06,21,08,12,14.70
2008,06,21,08,13,14.70
2008,06,21,08,14,14.70
2008,06,21,08,15,14.80
2008,06,21,08,16,14.80
2008,06,21,08,17,14.80
2008,06,21,08,18,14.80
2008,06,21,08,19,14.80
2008,06,21,08,20,14.90
2008,06,21,08,21,14.90
2008,06,21,08,22,14.90
2008,06,21,08,23,15.00
2008,06,21,08,24,15.00
2008,06,21,08,25,15.00
2008,06,21,08,26,15.00
2008,06,21,08,27,15.00
2008,06,21,08,28,15.00
2008,06,21,08,29,15.00
2008,06,21,08,30,15.00
2008,06,21,08,31,15.00
2008,06,21,08,32,15.10
2008,06,21,08,33,15.10
2008,06,21,08,34,15.20
2008,06,21,08,35,15.20
2008,06,21,08,36,15.30
2008,06,21,08,37,15.30
2008,06,21,08,38,15.30
2008,06,21,08,39,15.40
2008,06,21,08,40,15.40
2008,06,21,08,41,15.40
2008,06,21,08,42,15.50
2008,06,21,08,43,15.50
2008,06,21,08,44,15.60
2008,06,21,08,45,15.60
2008,06,21,08,46,15.60
2008,06,21,08,47,15.70
2008,06,21,08,48,15.70
2008,06,21,08,49,15.70
2008,06,21,08,50,15.80
2008,06,21,08,51,15.80
2008,06,21,08,52,15.80
2008,06,21,08,53,15.90
2008,06,21,08,54,15.90
2008,06,21,08,55,15.90
2008,06,21,08,56,16.00
2008,06,21,08,57,16.00
2008,06,21,08,58,16.10
2008,06,21,08,59,16.10
2008,06,21,09,00,16.20
2008,06,21,09,01,16.20
2008,06,21,09,02,16.20
2008,06,21,09,03,16.30
2008,06,21,09,04,16.30
2008,06,21,09,05,16.30
2008,06,21,09,06,16.30
2008,06,21,09,07,16.30
2008,06,21,09,08,16.20
2008,06,21,09,09,16.20
2008,06,21,09,10,16.20
2008,06,21,09,11,16.20
2008,06,21,09,12,16.10
2008,06,21,09,13,16.10
2008,06,21,09,14,16.00
2008,06,21,09,15,16.00
2008,06,21,09,16,15.90
2008,06,21,09,17,15.90
2008,06,21,09,18,15.90
2008,06,21,09,19,15.90
2008,06,21,09,20,15.80
2008,06,21,09,21,15.80
2008,06,21,09,22,15.80
2008,06,21,09,23,15.80
2008,06,21,09,24,15.80
2008,06,21,09,25,15.70
2008,06,21,09,26,15.70
2008,06,21,09,27,15.60
2008,06,21,09,28,15.60
2008,06,21,09,29,15.60
2008,06,21,09,30,15.50
2008,06,21,09,31,15.50
2008,06,21,09,32,15.50
2008,06,21,09,33,15.40
2008,06,21,09,34,15.40
2008,06,21,09,35,15.40
2008,06,21,09,36,15.40
2008,06,21,09,37,15.50
2008,06,21,09,38,15.50
2008,06,21,09,39,15.50
2008,06,21,09,40,15.50
2008,06,21,09,41,15.50
2008,06,21,09,42,15.60
2008,06,21,09,43,15.60
2008,06,21,09,44,15.60
2008,06,21,09,45,15.60
2008,06,21,09,46,15.60
2008,06,21,09,47,15.60
2008,06,21,09,48,15.60
2008,06,21,09,49,15.70
2008,06,21,09,50,15.70
2008,06,21,09,51,15.70
2008,06,21,09,52,15.70
2008,06,21,09,53,15.70
2008,06,21,09,54,15.70
2008,06,21,09,55,15.70
2008,06,21,09,56,15.70
2008,06,21,09,57,15.70
2008,06,21,09,58,15.70
2008,06,21,09,59,15.80
2008,06,21,10,00,15.80
2008,06,21,10,01,15.80
2008,06,21,10,02,15.80
2008,06,21,10,03,15.90
2008,06,21,10,04,15.90
2008,06,21,10,05,15.90
2008,06,21,10,06,15.90
2008,06,21,10,07,16.00
2008,06,21,10,08,16.00
2008,06,21,10,09,16.10
2008,06,21,10,10,16.10
2008,06,21,10,11,16.10
2008,06,21,10,12,16.00
2008,06,21,10,13,16.10
2008,06,21,10,14,16.10
2008,06,21,10,15,16.10
2008,06,21,10,16,16.10
2008,06,21,10,17,16.10
2008,06,21,10,18,16.20
2008,06,21,10,19,16.20
2008,06,21,10,20,16.20
2008,06,21,10,21,16.20
2008,06,21,10,22,16.20
2008,06,21,10,23,16.20
2008,06,21,10,24,16.20
2008,06,21,10,25,16.20
2008,06,21,10,26,16.20
2008,06,21,10,27,16.20
2008,06,21,10,28,16.20
2008,06,21,10,29,16.20
2008,06,21,10,30,16.20
2008,06,21,10,31,16.20
2008,06,21,10,32,16.20
2008,06,21,10,33,16.20
2008,06,21,10,34,16.20
2008,06,21,10,35,16.20
2008,06,21,10,36,16.20
2008,06,21,10,37,16.20
2008,06,21,10,38,16.30
2008,06,21,10,39,16.30
2008,06,21,10,40,16.30
2008,06,21,10,41,16.30
2008,06,21,10,42,16.30
2008,06,21,10,43,16.30
2008,06,21,10,44,16.30
2008,06,21,10,45,16.30
2008,06,21,10,46,16.40
2008,06,21,10,47,16.40
2008,06,21,10,48,16.40
2008,06,21,10,49,16.50
2008,06,21,10,50,16.50
2008,06,21,10,51,16.50
2008,06,21,10,52,16.60
2008,06,21,10,53,16.60
2008,06,21,10,54,16.60
2008,06,21,10,55,16.60
2008,06,21,10,56,16.60
2008,06,21,10,57,16.50
2008,06,21,10,58,16.40
2008,06,21,10,59,16.40
2008,06,21,11,00,16.30
2008,06,21,11,01,16.40
2008,06,21,11,02,16.40
2008,06,21,11,03,16.30
2008,06,21,11,04,16.30
2008,06,21,11,05,16.30
2008,06,21,11,06,16.40
2008,06,21,11,07,16.40
2008,06,21,11,08,16.40
2008,06,21,11,09,16.40
2008,06,21,11,10,16.50
2008,06,21,11,11,16.50
2008,06,21,11,12,16.60
2008,06,21,11,13,16.60
2008,06,21,11,14,16.70
2008,06,21,11,15,16.70
2008,06,21,11,16,16.80
2008,06,21,11,17,16.80
2008,06,21,11,18,16.80
2008,06,21,11,19,16.80
2008,06,21,11,20,16.80
2008,06,21,11,21,16.70
2008,06,21,11,22,16.70
2008,06,21,11,23,16.70
2008,06,21,11,24,16.70
2008,06,21,11,25,16.70
2008,06,21,11,26,16.80
2008,06,21,11,27,16.80
2008,06,21,11,28,16.90
2008,06,21,11,29,16.90
2008,06,21,11,30,16.90
2008,06,21,11,31,16.90
2008,06,21,11,32,16.90
2008,06,21,11,33,16.90
2008,06,21,11,34,16.90
2008,06,21,11,35,16.90
2008,06,21,11,36,16.90
2008,06,21,11,37,16.90
2008,06,21,11,38,16.90
2008,06,21,11,39,16.80
2008,06,21,11,40,16.80
2008,06,21,11,41,16.80
2008,06,21,11,42,16.80
2008,06,21,11,43,16.80
2008,06,21,11,44,16.80
2008,06,21,11,45,16.80
2008,06,21,11,46,16.90
2008,06,21,11,47,16.90
2008,06,21,11,48,16.90
2008,06,21,11,49,17.00
2008,06,21,11,50,17.00
2008,06,21,11,51,17.10
2008,06,21,11,52,17.20
2008,06,21,11,53,17.30
2008,06,21,11,54,17.40
2008,06,21,11,55,17.40
2008,06,21,11,56,17.50
2008,06,21,11,57,17.60
2008,06,21,11,58,17.60
2008,06,21,11,59,17.60
2008,06,21,12,00,17.60
2008,06,21,12,01,17.50
2008,06,21,12,02,17.50
2008,06,21,12,03,17.50
2008,06,21,12,04,17.50
2008,06,21,12,05,17.50
2008,06,21,12,06,17.50
2008,06,21,12,07,17.50
2008,06,21,12,08,17.60
2008,06,21,12,09,17.60
2008,06,21,12,10,17.50
2008,06,21,12,11,17.40
2008,06,21,12,12,17.40
2008,06,21,12,13,17.50
2008,06,21,12,14,17.50
2008,06,21,12,15,17.60
2008,06,21,12,16,17.60
2008,06,21,12,17,17.70
2008,06,21,12,18,17.70
2008,06,21,12,19,17.80
2008,06,21,12,20,17.80
2008,06,21,12,21,17.90
2008,06,21,12,22,17.90
2008,06,21,12,23,18.00
2008,06,21,12,24,18.10
2008,06,21,12,25,18.20
2008,06,21,12,26,18.20
2008,06,21,12,27,18.30
2008,06,21,12,28,18.30
2008,06,21,12,29,18.40
2008,06,21,12,30,18.40
2008,06,21,12,31,18.30
2008,06,21,12,32,18.30
2008,06,21,12,33,18.30
2008,06,21,12,34,18.30
2008,06,21,12,35,18.30
2008,06,21,12,36,18.30
2008,06,21,12,37,18.30
2008,06,21,12,38,18.30
2008,06,21,12,39,18.30
2008,06,21,12,40,18.30
2008,06,21,12,41,18.30
2008,06,21,12,42,18.30
2008,06,21,12,43,18.30
2008,06,21,12,44,18.30
2008,06,21,12,45,18.30
2008,06,21,12,46,18.30
2008,06,21,12,47,18.30
2008,06,21,12,48,18.30
2008,06,21,12,49,18.30
2008,06,21,12,50,18.30
2008,06,21,12,51,18.20
2008,06,21,12,52,18.20
2008,06,21,12,53,18.10
2008,06,21,12,54,18.10
2008,06,21,12,55,18.10
2008,06,21,12,56,18.00
2008,06,21,12,57,17.90
2008,06,21,12,58,17.80
2008,06,21,12,59,17.70
2008,06,21,13,00,17.60
2008,06,21,13,01,17.60
2008,06,21,13,02,17.50
2008,06,21,13,03,17.40
2008,06,21,13,04,17.40
2008,06,21,13,05,17.30
2008,06,21,13,06,17.30
2008,06,21,13,07,17.30
2008,06,21,13,08,17.30
2008,06,21,13,09,17.30
2008,06,21,13,10,17.30
2008,06,21,13,11,17.20
2008,06,21,13,12,17.20
2008,06,21,13,13,17.20
2008,06,21,13,14,17.20
2008,06,21,13,15,17.20
2008,06,21,13,16,17.30
2008,06,21,13,17,17.30
2008,06,21,13,18,17.30
2008,06,21,13,19,17.30
2008,06,21,13,20,17.40
2008,06,21,13,21,17.40
2008,06,21,13,22,17.50
2008,06,21,13,23,17.50
2008,06,21,13,24,17.60
2008,06,21,13,25,17.70
2008,06,21,13,26,17.70
2008,06,21,13,27,17.80
2008,06,21,13,28,17.90
2008,06,21,13,29,17.90
2008,06,21,13,30,18.00
2008,06,21,13,31,18.10
2008,06,21,13,32,18.20
2008,06,21,13,33,18.20
2008,06,21,13,34,18.30
2008,06,21,13,35,18.30
2008,06,21,13,36,18.40
2008,06,21,13,37,18.40
2008,06,21,13,38,18.40
2008,06,21,13,39,18.40
2008,06,21,13,40,18.40
2008,06,21,13,41,18.40
2008,06,21,13,42,18.40
2008,06,21,13,43,18.40
2008,06,21,13,44,18.30
2008,06,21,13,45,18.30
2008,06,21,13,46,18.30
2008,06,21,13,47,18.30
2008,06,21,13,48,18.30
2008,06,21,13,49,18.30
2008,06,21,13,50,18.30
2008,06,21,13,51,18.30
2008,06,21,13,52,18.30
2008,06,21,13,53,18.30
2008,06,21,13,54,18.30
2008,06,21,13,55,18.30
2008,06,21,13,56,18.30
2008,06,21,13,57,18.40
2008,06,21,13,58,18.50
2008,06,21,13,59,18.50
2008,06,21,14,00,18.60
2008,06,21,14,01,18.70
2008,06,21,14,02,18.70
2008,06,21,14,03,18.80
2008,06,21,14,04,18.80
2008,06,21,14,05,18.90
2008,06,21,14,06,18.90
2008,06,21,14,07,19.00
2008,06,21,14,08,19.10
2008,06,21,14,09,19.20
2008,06,21,14,10,19.20
2008,06,21,14,11,19.30
2008,06,21,14,12,19.40
2008,06,21,14,13,19.40
2008,06,21,14,14,19.50
2008,06,21,14,15,19.50
2008,06,21,14,16,19.60
2008,06,21,14,17,19.60
2008,06,21,14,18,19.50
2008,06,21,14,19,19.50
2008,06,21,14,20,19.40
2008,06,21,14,21,19.50
2008,06,21,14,22,19.50
2008,06,21,14,23,19.50
2008,06,21,14,24,19.40
2008,06,21,14,25,19.40
2008,06,21,14,26,19.30
2008,06,21,14,27,19.20
2008,06,21,14,28,19.20
2008,06,21,14,29,19.20
2008,06,21,14,30,19.20
2008,06,21,14,31,19.20
2008,06,21,14,32,19.20
2008,06,21,14,33,19.20
2008,06,21,14,34,19.20
2008,06,21,14,35,19.20
2008,06,21,14,36,19.30
2008,06,21,14,37,19.40
2008,06,21,14,38,19.40
2008,06,21,14,39,19.50
2008,06,21,14,40,19.60
2008,06,21,14,41,19.70
2008,06,21,14,42,19.80
2008,06,21,14,43,19.90
2008,06,21,14,44,20.00
2008,06,21,14,45,20.10
2008,06,21,14,46,20.20
2008,06,21,14,47,20.30
2008,06,21,14,48,20.30
2008,06,21,14,49,20.40
2008,06,21,14,50,20.50
2008,06,21,14,51,20.60
2008,06,21,14,52,20.60
2008,06,21,14,53,20.60
2008,06,21,14,54,20.60
2008,06,21,14,55,20.60
2008,06,21,14,56,20.50
2008,06,21,14,57,20.50
2008,06,21,14,58,20.50
2008,06,21,14,59,20.50
2008,06,21,15,00,20.60
2008,06,21,15,01,20.60
2008,06,21,15,02,20.60
2008,06,21,15,03,20.60
2008,06,21,15,04,20.60
2008,06,21,15,05,20.50
2008,06,21,15,06,20.50
2008,06,21,15,07,20.40
2008,06,21,15,08,20.30
2008,06,21,15,09,20.30
2008,06,21,15,10,20.20
2008,06,21,15,11,20.20
2008,06,21,15,12,20.10
2008,06,21,15,13,20.10
2008,06,21,15,14,20.00
2008,06,21,15,15,20.00
2008,06,21,15,16,19.90
2008,06,21,15,17,19.90
2008,06,21,15,18,20.00
2008,06,21,15,19,20.00
2008,06,21,15,20,20.00
2008,06,21,15,21,20.10
2008,06,21,15,22,20.20
2008,06,21,15,23,20.30
2008,06,21,15,24,20.30
2008,06,21,15,25,20.40
2008,06,21,15,26,20.50
2008,06,21,15,27,20.60
2008,06,21,15,28,20.60
2008,06,21,15,29,20.70
2008,06,21,15,30,20.80
2008,06,21,15,31,20.80
2008,06,21,15,32,20.80
2008,06,21,15,33,20.90
2008,06,21,15,34,20.90
2008,06,21,15,35,20.90
2008,06,21,15,36,21.00
2008,06,21,15,37,21.00
2008,06,21,15,38,21.10
2008,06,21,15,39,21.10
2008,06,21,15,40,21.10
2008,06,21,15,41,21.10
2008,06,21,15,42,21.00
2008,06,21,15,43,21.00
2008,06,21,15,44,20.90
2008,06,21,15,45,20.90
2008,06,21,15,46,20.80
2008,06,21,15,47,20.80
2008,06,21,15,48,20.80
2008,06,21,15,49,20.80
2008,06,21,15,50,20.80
2008,06,21,15,51,20.90
2008,06,21,15,52,20.90
2008,06,21,15,53,20.90
2008,06,21,15,54,21.00
2008,06,21,15,55,21.00
2008,06,21,15,56,21.00
2008,06,21,15,57,21.10
2008,06,21,15,58,21.10
2008,06,21,15,59,21.20
2008,06,21,16,00,21.20
2008,06,21,16,01,21.20
2008,06,21,16,02,21.30
2008,06,21,16,03,21.40
2008,06,21,16,04,21.50
2008,06,21,16,05,21.60
2008,06,21,16,06,21.70
2008,06,21,16,07,21.80
2008,06,21,16,08,21.80
2008,06,21,16,09,21.90
2008,06,21,16,10,22.00
2008,06,21,16,11,22.10
2008,06,21,16,12,22.20
2008,06,21,16,13,22.30
2008,06,21,16,14,22.40
2008,06,21,16,15,22.50
2008,06,21,16,16,22.60
2008,06,21,16,17,22.70
2008,06,21,16,18,22.70
2008,06,21,16,19,22.80
2008,06,21,16,20,22.80
2008,06,21,16,21,22.90
2008,06,21,16,22,23.00
2008,06,21,16,23,23.00
2008,06,21,16,24,23.10
2008,06,21,16,25,23.30
2008,06,21,16,26,23.30
2008,06,21,16,27,23.40
2008,06,21,16,28,23.40
2008,06,21,16,29,23.40
2008,06,21,16,30,23.40
2008,06,21,16,31,23.40
2008,06,21,16,32,23.50
2008,06,21,16,33,23.50
2008,06,21,16,34,23.60
2008,06,21,16,35,23.60
2008,06,21,16,36,23.60
2008,06,21,16,37,23.60
2008,06,21,16,38,23.60
2008,06,21,16,39,23.70
2008,06,21,16,40,23.70
2008,06,21,16,41,23.80
2008,06,21,16,42,23.80
2008,06,21,16,43,23.90
2008,06,21,16,44,24.00
2008,06,21,16,45,24.10
2008,06,21,16,46,24.10
2008,06,21,16,47,24.20
2008,06,21,16,48,24.30
2008,06,21,16,49,24.30
2008,06,21,16,50,24.40
2008,06,21,16,51,24.50
2008,06,21,16,52,24.50
2008,06,21,16,53,24.60
2008,06,21,16,54,24.60
2008,06,21,16,55,24.60
2008,06,21,16,56,24.60
2008,06,21,16,57,24.60
2008,06,21,16,58,24.50
2008,06,21,16,59,24.50
2008,06,21,17,00,24.40
2008,06,21,17,01,24.30
2008,06,21,17,02,24.10
2008,06,21,17,03,23.90
2008,06,21,17,04,23.80
2008,06,21,17,05,23.60
2008,06,21,17,06,23.50
2008,06,21,17,07,23.40
2008,06,21,17,08,23.20
2008,06,21,17,09,23.10
2008,06,21,17,10,22.90
2008,06,21,17,11,22.80
2008,06,21,17,12,22.70
2008,06,21,17,13,22.60
2008,06,21,17,14,22.60
2008,06,21,17,15,22.50
2008,06,21,17,16,22.40
2008,06,21,17,17,22.30
2008,06,21,17,18,22.20
2008,06,21,17,19,22.10
2008,06,21,17,20,22.00
2008,06,21,17,21,21.90
2008,06,21,17,22,21.80
2008,06,21,17,23,21.80
2008,06,21,17,24,21.80
2008,06,21,17,25,21.70
2008,06,21,17,26,21.60
2008,06,21,17,27,21.50
2008,06,21,17,28,21.40
2008,06,21,17,29,21.30
2008,06,21,17,30,21.10
2008,06,21,17,31,21.10
2008,06,21,17,32,21.00
2008,06,21,17,33,21.00
2008,06,21,17,34,21.00
2008,06,21,17,35,20.90
2008,06,21,17,36,20.90
2008,06,21,17,37,20.90
2008,06,21,17,38,20.90
2008,06,21,17,39,20.90
2008,06,21,17,40,20.90
2008,06,21,17,41,21.00
2008,06,21,17,42,21.00
2008,06,21,17,43,21.00
2008,06,21,17,44,21.10
2008,06,21,17,45,21.10
2008,06,21,17,46,21.20
2008,06,21,17,47,21.20
2008,06,21,17,48,21.30
2008,06,21,17,49,21.30
2008,06,21,17,50,21.30
2008,06,21,17,51,21.30
2008,06,21,17,52,21.30
2008,06,21,17,53,21.30
2008,06,21,17,54,21.30
2008,06,21,17,55,21.30
2008,06,21,17,56,21.40
2008,06,21,17,57,21.40
2008,06,21,17,58,21.40
2008,06,21,17,59,21.40
2008,06,21,18,00,21.50
2008,06,21,18,01,21.60
2008,06,21,18,02,21.60
2008,06,21,18,03,21.70
2008,06,21,18,04,21.80
2008,06,21,18,05,21.80
2008,06,21,18,06,21.80
2008,06,21,18,07,21.90
2008,06,21,18,08,21.90